Satellite: DTUSAT-2 Catalog number: 40030 Epoch time: 15092.65499815 Element set: 999 Inclination: 097.9568 deg RA of node: 352.5944 deg Eccentricity: 0.0014049 Arg of perigee: 067.3622 deg Mean anomaly: 292.9073 deg Mean motion: 14.86414905 rev/day Decay rate: 3.443e-05 rev/day^2 Epoch rev: 4256 Checksum: 334
Satellite: ANTELSAT Catalog number: 40034 Epoch time: 15092.68799062 Element set: 999 Inclination: 097.9529 deg RA of node: 346.3697 deg Eccentricity: 0.0060849 Arg of perigee: 002.9697 deg Mean anomaly: 357.1874 deg Mean motion: 14.72448999 rev/day Decay rate: 2.931e-05 rev/day^2 Epoch rev: 4218 Checksum: 371
/EX SB KEPS @ AMSAT $ORB15092.W Orbital Elements 15092.WEATHER
HR AMSAT ORBITAL ELEMENTS FOR WEATHER SATELLITES FROM WA5QGD FORT WORTH,TX April 2, 2015 BID: ORB15092.W TO ALL RADIO AMATEURS BT
Satellite: MET-2/21 Catalog number: 22782 Epoch time: 15092.09399038 Element set: 999 Inclination: 082.5475 deg RA of node: 304.0594 deg Eccentricity: 0.0022476 Arg of perigee: 171.4314 deg Mean anomaly: 299.4369 deg Mean motion: 13.83764456 rev/day Decay rate: 6.5e-07 rev/day^2 Epoch rev: 9007 Checksum: 336
Satellite: OKEAN-4 Catalog number: 23317 Epoch time: 15092.51625635 Element set: 999 Inclination: 082.5391 deg RA of node: 156.5002 deg Eccentricity: 0.0019365 Arg of perigee: 216.6141 deg Mean anomaly: 275.2887 deg Mean motion: 14.86481827 rev/day Decay rate: 1.898e-05 rev/day^2 Epoch rev: 10607 Checksum: 326
Satellite: NOAA-14 Catalog number: 23455 Epoch time: 15092.48650618 Element set: 999 Inclination: 098.7544 deg RA of node: 175.4879 deg Eccentricity: 0.0008488 Arg of perigee: 298.9064 deg Mean anomaly: 131.2518 deg Mean motion: 14.14030904 rev/day Decay rate: 6.7e-07 rev/day^2 Epoch rev: 4483 Checksum: 340
Satellite: NOAA-15 Catalog number: 25338 Epoch time: 15092.49731840 Element set: 999 Inclination: 098.7712 deg RA of node: 091.0912 deg Eccentricity: 0.0011249 Arg of perigee: 033.8767 deg Mean anomaly: 326.3129 deg Mean motion: 14.25590999 rev/day Decay rate: 3.21e-06 rev/day^2 Epoch rev: 87805 Checksum: 337
Satellite: RESURS Catalog number: 25394 Epoch time: 15091.85585392 Element set: 999 Inclination: 098.4569 deg RA of node: 049.7258 deg Eccentricity: 0.0002306 Arg of perigee: 114.4750 deg Mean anomaly: 298.6070 deg Mean motion: 14.24450070 rev/day Decay rate: 7.7e-07 rev/day^2 Epoch rev: 86941 Checksum: 331
Satellite: FENGYUN1 Catalog number: 25730 Epoch time: 15092.63500889 Element set: 999 Inclination: 098.9388 deg RA of node: 057.5487 deg Eccentricity: 0.0020129 Arg of perigee: 008.3576 deg Mean anomaly: 041.9971 deg Mean motion: 14.13131949 rev/day Decay rate: 2.502e-05 rev/day^2 Epoch rev: 81838 Checksum: 337
Satellite: OKEAN-0 Catalog number: 25860 Epoch time: 15092.53717741 Element set: 999 Inclination: 098.0861 deg RA of node: 060.5022 deg Eccentricity: 0.0001271 Arg of perigee: 108.9688 deg Mean anomaly: 005.9542 deg Mean motion: 14.75917694 rev/day Decay rate: 1.386e-05 rev/day^2 Epoch rev: 84482 Checksum: 329
Satellite: NOAA-16 Catalog number: 26536 Epoch time: 15092.40316086 Element set: 999 Inclination: 098.9497 deg RA of node: 158.4278 deg Eccentricity: 0.0011577 Arg of perigee: 088.1489 deg Mean anomaly: 272.1009 deg Mean motion: 14.13084951 rev/day Decay rate: 9.3e-07 rev/day^2 Epoch rev: 74895 Checksum: 354
Satellite: NOAA-17 Catalog number: 27453 Epoch time: 15092.45037119 Element set: 999 Inclination: 098.3355 deg RA of node: 082.2161 deg Eccentricity: 0.0012699 Arg of perigee: 049.3918 deg Mean anomaly: 310.8365 deg Mean motion: 14.24866807 rev/day Decay rate: 1.50e-06 rev/day^2 Epoch rev: 66387 Checksum: 335
Satellite: NOAA-18 Catalog number: 28654 Epoch time: 15092.46436536 Element set: 999 Inclination: 099.1805 deg RA of node: 083.2769 deg Eccentricity: 0.0014456 Arg of perigee: 168.8641 deg Mean anomaly: 191.2852 deg Mean motion: 14.12171505 rev/day Decay rate: 2.53e-06 rev/day^2 Epoch rev: 50838 Checksum: 335
Satellite: NOAA-19 Catalog number: 33591 Epoch time: 15092.48303540 Element set: 999 Inclination: 098.9827 deg RA of node: 042.2114 deg Eccentricity: 0.0014653 Arg of perigee: 027.4359 deg Mean anomaly: 332.7583 deg Mean motion: 14.11902986 rev/day Decay rate: 3.45e-06 rev/day^2 Epoch rev: 31680 Checksum: 320
/EX SB KEPS @ AMSAT $ORB15092.M Orbital Elements 15092.MISC
HR AMSAT ORBITAL ELEMENTS FOR MANNED AND MISCELLANEOUS SATELLITES FROM WA5QGD FORT WORTH,TX April 2, 2015 BID: ORB15092.M TO ALL RADIO AMATEURS BT
Satellite: HUBBLE Catalog number: 20580 Epoch time: 15091.90868367 Element set: 999 Inclination: 028.4700 deg RA of node: 297.0210 deg Eccentricity: 0.0003129 Arg of perigee: 131.6502 deg Mean anomaly: 008.8297 deg Mean motion: 15.07097209 rev/day Decay rate: 4.185e-05 rev/day^2 Epoch rev: 16829 Checksum: 306
Satellite: ISS Catalog number: 25544 Epoch time: 15092.98464074 Element set: 999 Inclination: 051.6391 deg RA of node: 099.7452 deg Eccentricity: 0.0002817 Arg of perigee: 214.6336 deg Mean anomaly: 190.0722 deg Mean motion: 15.55300070 rev/day Decay rate: 1.6257e-04 rev/day^2 Epoch rev: 93633 Checksum: 309
Satellite: CO-58 Catalog number: 28895 Epoch time: 15092.05594812 Element set: 999 Inclination: 097.8227 deg RA of node: 283.8080 deg Eccentricity: 0.0017273 Arg of perigee: 173.5701 deg Mean anomaly: 186.5726 deg Mean motion: 14.62626468 rev/day Decay rate: 1.775e-05 rev/day^2 Epoch rev: 50246 Checksum: 357
Satellite: FALCON Catalog number: 30776 Epoch time: 15092.44946176 Element set: 999 Inclination: 035.4265 deg RA of node: 115.3722 deg Eccentricity: 0.0002645 Arg of perigee: 291.2782 deg Mean anomaly: 210.3802 deg Mean motion: 15.22675426 rev/day Decay rate: 1.4197e-04 rev/day^2 Epoch rev: 44474 Checksum: 310
Satellite: MAST Catalog number: 31126 Epoch time: 15091.85436446 Element set: 999 Inclination: 097.9528 deg RA of node: 063.3955 deg Eccentricity: 0.0091231 Arg of perigee: 173.0547 deg Mean anomaly: 247.9770 deg Mean motion: 14.55918559 rev/day Decay rate: 1.018e-05 rev/day^2 Epoch rev: 42238 Checksum: 335
Satellite: CAPE1 Catalog number: 31130 Epoch time: 15091.87029245 Element set: 999 Inclination: 097.9746 deg RA of node: 060.4813 deg Eccentricity: 0.0097123 Arg of perigee: 192.5911 deg Mean anomaly: 167.2860 deg Mean motion: 14.55314279 rev/day Decay rate: 1.368e-05 rev/day^2 Epoch rev: 42178 Checksum: 322
Satellite: COMPASS Catalog number: 32787 Epoch time: 15092.41420740 Element set: 999 Inclination: 097.6605 deg RA of node: 142.4019 deg Eccentricity: 0.0011833 Arg of perigee: 307.8837 deg Mean anomaly: 052.1310 deg Mean motion: 14.90194380 rev/day Decay rate: 5.374e-05 rev/day^2 Epoch rev: 37522 Checksum: 296
Satellite: AAUSAT2 Catalog number: 32788 Epoch time: 15092.12431928 Element set: 999 Inclination: 097.6614 deg RA of node: 143.5082 deg Eccentricity: 0.0011346 Arg of perigee: 305.7252 deg Mean anomaly: 054.2911 deg Mean motion: 14.91171909 rev/day Decay rate: 4.980e-05 rev/day^2 Epoch rev: 37526 Checksum: 315
Satellite: DO-64 Catalog number: 32789 Epoch time: 15092.78578175 Element set: 999 Inclination: 097.6801 deg RA of node: 153.9616 deg Eccentricity: 0.0010160 Arg of perigee: 274.3006 deg Mean anomaly: 218.4125 deg Mean motion: 14.98578706 rev/day Decay rate: 1.2038e-04 rev/day^2 Epoch rev: 37578 Checksum: 353
Satellite: CO-66 Catalog number: 32791 Epoch time: 15092.13395702 Element set: 999 Inclination: 097.6600 deg RA of node: 140.1991 deg Eccentricity: 0.0012738 Arg of perigee: 315.1836 deg Mean anomaly: 044.8351 deg Mean motion: 14.88365643 rev/day Decay rate: 4.056e-05 rev/day^2 Epoch rev: 37500 Checksum: 321
Satellite: RS-30 Catalog number: 32953 Epoch time: 15092.73996374 Element set: 999 Inclination: 082.5066 deg RA of node: 021.1578 deg Eccentricity: 0.0017613 Arg of perigee: 244.9629 deg Mean anomaly: 114.9625 deg Mean motion: 12.43058320 rev/day Decay rate: 1.0e-07 rev/day^2 Epoch rev: 31123 Checksum: 300
Satellite: METEOR-M Catalog number: 35865 Epoch time: 15092.77998508 Element set: 999 Inclination: 098.5088 deg RA of node: 135.7913 deg Eccentricity: 0.0002203 Arg of perigee: 002.0374 deg Mean anomaly: 358.0783 deg Mean motion: 14.22006728 rev/day Decay rate: 1.42e-06 rev/day^2 Epoch rev: 28749 Checksum: 327
Satellite: RS-38 Catalog number: 35869 Epoch time: 15092.68674580 Element set: 999 Inclination: 098.5011 deg RA of node: 135.3705 deg Eccentricity: 0.0004312 Arg of perigee: 345.9279 deg Mean anomaly: 014.1767 deg Mean motion: 14.22281980 rev/day Decay rate: 8.1e-07 rev/day^2 Epoch rev: 28752 Checksum: 334
Satellite: JUGNU Catalog number: 37839 Epoch time: 15092.83885084 Element set: 999 Inclination: 019.9617 deg RA of node: 299.2957 deg Eccentricity: 0.0018985 Arg of perigee: 295.9032 deg Mean anomaly: 135.6203 deg Mean motion: 14.12442636 rev/day Decay rate: 5.30e-06 rev/day^2 Epoch rev: 17955 Checksum: 352
Satellite: SRMSAT Catalog number: 37841 Epoch time: 15092.05337502 Element set: 999 Inclination: 019.9726 deg RA of node: 329.2073 deg Eccentricity: 0.0011956 Arg of perigee: 215.6546 deg Mean anomaly: 292.4287 deg Mean motion: 14.10459267 rev/day Decay rate: 5.10e-06 rev/day^2 Epoch rev: 17919 Checksum: 318
Satellite: RAX-2 Catalog number: 37853 Epoch time: 15092.48224139 Element set: 999 Inclination: 101.7126 deg RA of node: 266.3785 deg Eccentricity: 0.0200398 Arg of perigee: 296.6470 deg Mean anomaly: 131.0077 deg Mean motion: 14.94784542 rev/day Decay rate: 8.735e-05 rev/day^2 Epoch rev: 18579 Checksum: 345
Satellite: AUBIESAT Catalog number: 37854 Epoch time: 15092.10207088 Element set: 999 Inclination: 101.7166 deg RA of node: 268.8970 deg Eccentricity: 0.0196807 Arg of perigee: 292.9190 deg Mean anomaly: 186.6278 deg Mean motion: 14.96743566 rev/day Decay rate: 9.715e-05 rev/day^2 Epoch rev: 18583 Checksum: 366
